• In Czech Republic
  • List of Countries
  • For 7 days
  • Water Temperature
  • Satellite Maps
  • Weather Map
  • Weather Widgets
  • user-avatar
    Login

    Hourly Weather Halifax

    Today, 12 December, Tuesday

    Time Temperature Precipitation Wind Pressure Humidity
    00:00 -3°C° 0 mm 4 mps 758 mmHg 91%
    01:00 -4°C° 0 mm 4 mps 759 mmHg 90%
    02:00 -4°C° 0 mm 3 mps 759 mmHg 90%
    03:00 -5°C° 0 mm 4 mps 759 mmHg 90%
    04:00 -5°C° 0 mm 4 mps 760 mmHg 89%
    05:00 -5°C° 0 mm 4 mps 760 mmHg 89%
    06:00 -5°C° 0 mm 4 mps 760 mmHg 88%
    07:00 -5°C° 0 mm 4 mps 760 mmHg 87%
    08:00 -5°C° 0 mm 4 mps 760 mmHg 86%
    09:00 -5°C° 0 mm 5 mps 759 mmHg 80%
    10:00 -2°C° 0 mm 5 mps 759 mmHg 75%
    11:00 -1°C° 0 mm 5 mps 759 mmHg 70%
    12:00 -2°C° 0.1 mm 6 mps 758 mmHg 72%
    13:00 -1°C° 0.1 mm 6 mps 757 mmHg 74%
    14:00 -1°C° 0.1 mm 6 mps 756 mmHg 76%
    15:00 0°C° 0.1 mm 7 mps 755 mmHg 80%
    16:00 0°C° 0.1 mm 7 mps 755 mmHg 85%
    17:00 +2°C° 0.1 mm 7 mps 754 mmHg 89%
    18:00 +2°C° 0.2 mm 8 mps 753 mmHg 90%
    19:00 +3°C° 0.2 mm 9 mps 752 mmHg 90%
    20:00 +5°C° 0.2 mm 10 mps 751 mmHg 90%
    21:00 +4°C° 1.4 mm 11 mps 749 mmHg 90%
    22:00 +5°C° 1.4 mm 12 mps 748 mmHg 90%
    23:00 +5°C° 1.4 mm 13 mps 746 mmHg 90%

    Tomorrow, 13 December, Wednesday

    Time Temperature Precipitation Wind Pressure Humidity
    00:00 +7°C° 3.1 mm 12 mps 745 mmHg 91%
    01:00 +7°C° 3.1 mm 11 mps 743 mmHg 91%
    02:00 +8°C° 3.1 mm 11 mps 742 mmHg 91%
    03:00 +8°C° 1.3 mm 9 mps 740 mmHg 93%
    04:00 +9°C° 1.3 mm 7 mps 738 mmHg 95%
    05:00 +9°C° 1.3 mm 5 mps 737 mmHg 97%
    06:00 +10°C° 2.1 mm 6 mps 736 mmHg 96%
    07:00 +10°C° 2.1 mm 7 mps 735 mmHg 94%
    08:00 +11°C° 2.1 mm 8 mps 734 mmHg 93%
    09:00 +10°C° 1.4 mm 7 mps 733 mmHg 93%
    10:00 +10°C° 1.4 mm 6 mps 732 mmHg 92%
    11:00 +10°C° 1.4 mm 5 mps 732 mmHg 92%
    12:00 +9°C° 0.1 mm 7 mps 732 mmHg 89%
    13:00 +7°C° 0.1 mm 8 mps 732 mmHg 85%
    14:00 +6°C° 0.1 mm 9 mps 732 mmHg 82%
    15:00 +5°C° 0.1 mm 9 mps 733 mmHg 81%
    16:00 +3°C° 0.1 mm 10 mps 733 mmHg 80%
    17:00 +1°C° 0.1 mm 10 mps 734 mmHg 79%
    18:00 0°C° 0.2 mm 10 mps 734 mmHg 77%
    19:00 -2°C° 0.2 mm 10 mps 734 mmHg 75%
    20:00 -3°C° 0.2 mm 11 mps 734 mmHg 73%
    21:00 -3°C° 0.3 mm 11 mps 734 mmHg 73%
    22:00 -3°C° 0.3 mm 11 mps 735 mmHg 73%
    23:00 -3°C° 0.3 mm 11 mps 735 mmHg 73%

    Day after tomorrow, 14 December, Thursday

    Time Temperature Precipitation Wind Pressure Humidity
    00:00 -5°C° 0.1 mm 12 mps 736 mmHg 72%
    01:00 -6°C° 0.1 mm 12 mps 737 mmHg 70%
    02:00 -7°C° 0.1 mm 12 mps 738 mmHg 69%
    03:00 -7°C° 0 mm 12 mps 739 mmHg 67%
    04:00 -7°C° 0 mm 12 mps 740 mmHg 66%
    05:00 -7°C° 0 mm 12 mps 740 mmHg 64%
    06:00 -7°C° 0.1 mm 12 mps 741 mmHg 64%
    07:00 -6°C° 0.1 mm 11 mps 742 mmHg 65%
    08:00 -6°C° 0.1 mm 11 mps 743 mmHg 65%
    09:00 -6°C° 0 mm 11 mps 744 mmHg 63%
    10:00 -4°C° 0 mm 11 mps 744 mmHg 60%
    11:00 -3°C° 0 mm 12 mps 745 mmHg 58%
    12:00 -3°C° 0 mm 11 mps 745 mmHg 56%
    13:00 -3°C° 0 mm 10 mps 744 mmHg 54%
    14:00 -3°C° 0 mm 9 mps 744 mmHg 51%
    15:00 -4°C° 0 mm 9 mps 744 mmHg 55%
    16:00 -4°C° 0 mm 8 mps 744 mmHg 59%
    17:00 -4°C° 0 mm 7 mps 744 mmHg 63%
    18:00 -6°C° 0 mm 8 mps 745 mmHg 62%
    19:00 -6°C° 0 mm 8 mps 745 mmHg 62%
    20:00 -6°C° 0 mm 9 mps 746 mmHg 61%
    21:00 -8°C° 0 mm 9 mps 746 mmHg 62%
    22:00 -8°C° 0 mm 9 mps 747 mmHg 62%
    23:00 -8°C° 0 mm 9 mps 747 mmHg 63%

    15 December, Friday

    Time Temperature Precipitation Wind Pressure Humidity
    00:00 -8°C° 0 mm 9 mps 748 mmHg 63%
    01:00 -9°C° 0 mm 9 mps 748 mmHg 63%
    02:00 -9°C° 0 mm 9 mps 749 mmHg 62%
    03:00 -9°C° 0 mm 9 mps 749 mmHg 62%
    04:00 -9°C° 0 mm 9 mps 750 mmHg 62%
    05:00 -9°C° 0 mm 9 mps 750 mmHg 62%
    06:00 -10°C° 0 mm 9 mps 751 mmHg 62%
    07:00 -10°C° 0 mm 9 mps 751 mmHg 63%
    08:00 -10°C° 0 mm 9 mps 752 mmHg 63%
    09:00 -9°C° 0 mm 9 mps 753 mmHg 61%
    10:00 -8°C° 0 mm 8 mps 753 mmHg 59%
    11:00 -7°C° 0 mm 8 mps 754 mmHg 56%
    12:00 -7°C° 0 mm 8 mps 754 mmHg 55%
    13:00 -7°C° 0 mm 8 mps 754 mmHg 54%
    14:00 -6°C° 0 mm 8 mps 754 mmHg 53%
    15:00 -7°C° 0 mm 8 mps 754 mmHg 55%
    16:00 -7°C° 0 mm 7 mps 755 mmHg 56%
    17:00 -7°C° 0 mm 7 mps 755 mmHg 57%
    18:00 -8°C° 0 mm 7 mps 755 mmHg 59%
    19:00 -8°C° 0 mm 7 mps 756 mmHg 60%
    20:00 -8°C° 0 mm 6 mps 756 mmHg 61%
    21:00 -8°C° 0 mm 6 mps 756 mmHg 62%
    22:00 -8°C° 0 mm 6 mps 756 mmHg 63%
    23:00 -8°C° 0 mm 6 mps 756 mmHg 63%

    16 December, Saturday

    Time Temperature Precipitation Wind Pressure Humidity
    00:00 -7°C° 0 mm 5 mps 756 mmHg 64%
    01:00 -7°C° 0 mm 4 mps 756 mmHg 66%
    02:00 -7°C° 0 mm 3 mps 755 mmHg 67%
    03:00 -7°C° 0 mm 3 mps 754 mmHg 68%
    04:00 -7°C° 0 mm 3 mps 754 mmHg 69%
    05:00 -7°C° 0 mm 3 mps 753 mmHg 71%
    06:00 -7°C° 0 mm 3 mps 753 mmHg 69%
    07:00 -7°C° 0 mm 3 mps 752 mmHg 67%
    08:00 -8°C° 0 mm 4 mps 752 mmHg 66%
    09:00 -8°C° 0.1 mm 5 mps 751 mmHg 60%
    10:00 -7°C° 0.1 mm 5 mps 750 mmHg 54%
    11:00 -8°C° 0.1 mm 6 mps 750 mmHg 48%
    12:00 -8°C° 0.1 mm 7 mps 749 mmHg 49%
    13:00 -8°C° 0.1 mm 7 mps 749 mmHg 50%
    14:00 -9°C° 0.1 mm 7 mps 748 mmHg 51%
    15:00 -9°C° 0.1 mm 7 mps 749 mmHg 55%
    16:00 -10°C° 0.1 mm 8 mps 750 mmHg 58%
    17:00 -11°C° 0.1 mm 8 mps 750 mmHg 62%
    18:00 -11°C° 0 mm 8 mps 751 mmHg 58%
    19:00 -11°C° 0 mm 8 mps 752 mmHg 54%
    20:00 -12°C° 0 mm 8 mps 752 mmHg 51%
    21:00 -12°C° 0 mm 8 mps 753 mmHg 51%
    22:00 -12°C° 0 mm 8 mps 754 mmHg 50%
    23:00 -11°C° 0 mm 8 mps 755 mmHg 50%

    17 December, Sunday

    Time Temperature Precipitation Wind Pressure Humidity
    00:00 -11°C° 0 mm 7 mps 755 mmHg 56%
    01:00 -11°C° 0 mm 7 mps 755 mmHg 61%
    02:00 -10°C° 0 mm 6 mps 755 mmHg 67%
    03:00 -11°C° 0.1 mm 7 mps 756 mmHg 70%
    04:00 -9°C° 0.1 mm 7 mps 756 mmHg 74%
    05:00 -10°C° 0.1 mm 8 mps 756 mmHg 77%
    06:00 -10°C° 0 mm 8 mps 757 mmHg 75%
    07:00 -10°C° 0 mm 8 mps 757 mmHg 72%
    08:00 -9°C° 0 mm 7 mps 758 mmHg 70%
    09:00 -9°C° 0 mm 7 mps 758 mmHg 66%
    10:00 -9°C° 0 mm 7 mps 759 mmHg 61%
    11:00 -8°C° 0 mm 7 mps 759 mmHg 57%
    12:00 -8°C° 0 mm 7 mps 759 mmHg 55%
    13:00 -8°C° 0 mm 6 mps 758 mmHg 54%
    14:00 -6°C° 0 mm 6 mps 758 mmHg 52%
    15:00 -7°C° 0 mm 5 mps 758 mmHg 56%
    16:00 -7°C° 0 mm 5 mps 758 mmHg 60%
    17:00 -8°C° 0 mm 4 mps 758 mmHg 65%
    18:00 -7°C° 0 mm 3 mps 758 mmHg 66%
    19:00 -6°C° 0 mm 2 mps 758 mmHg 67%
    20:00 -4°C° 0 mm 1 mps 757 mmHg 68%
    21:00 -4°C° 0.1 mm 1 mps 757 mmHg 68%
    22:00 -6°C° 0.1 mm 2 mps 757 mmHg 67%
    23:00 -6°C° 0.1 mm 2 mps 756 mmHg 67%
    Show more